This is the latest recevied weather packets stored in our database for station/object KE8AFF-13. If no packets are shown the sender has not sent any weather packets the latest 10 day(s).
| Time | Temp. | Humidity | Pressure | Rain* | Wind** | Luminosity | Snow |
|---|---|---|---|---|---|---|---|
| 1777463399 | 11.67° C | 99% | 1010.8 hPa | 4.32 mm | - | 10 W/m² | - |
| 1777463095 | 11.67° C | 99% | 1011 hPa | 4.83 mm | - | 5 W/m² | - |
| 1777462791 | 11.67° C | 99% | 1011 hPa | 1.78 mm | - | 3 W/m² | - |
| 1777462486 | 11.67° C | 99% | 1010.5 hPa | 1.27 mm | - | 8 W/m² | - |
| 1777462183 | 11.67° C | 99% | 1010.6 hPa | 1.27 mm | - | 6 W/m² | - |
| 1777461880 | 11.67° C | 99% | 1010.5 hPa | 0 mm | - | 7 W/m² | - |
| 1777461577 | 11.11° C | 99% | 1010.2 hPa | 0 mm | - | 3 W/m² | - |
| 1777461272 | 11.67° C | 99% | 1010.2 hPa | 0 mm | - | 3 W/m² | - |
| 1777460967 | 11.67° C | 99% | 1009.7 hPa | 0 mm | - | 4 W/m² | - |
| 1777460663 | 11.67° C | 99% | 1009.8 hPa | 0 mm | - | 5 W/m² | - |
| 1777460359 | 11.67° C | 99% | 1009.5 hPa | 0 mm | - | 6 W/m² | - |
| 1777460056 | 11.67° C | 99% | 1009.3 hPa | 0 mm | - | 6 W/m² | - |
| 1777459752 | 11.11° C | 99% | 1009.4 hPa | 0 mm | - | 1 W/m² | - |
| 1777459449 | 11.67° C | 99% | 1009.5 hPa | 0 mm | - | 0 W/m² | - |
| 1777459147 | 11.67° C | 98% | 1009.6 hPa | 0 mm | - | 0 W/m² | - |
| 1777458844 | 11.67° C | 98% | 1009.8 hPa | 0 mm | - | 0 W/m² | - |
| 1777458540 | 11.67° C | 98% | 1010.2 hPa | 0 mm | - | 0 W/m² | - |
| 1777458237 | 11.67° C | 98% | 1010.3 hPa | 1.78 mm | - | 0 W/m² | - |
| 1777457931 | 11.67° C | 98% | 1010.9 hPa | 4.83 mm | - | 0 W/m² | - |
| 1777457628 | 11.67° C | 97% | 1010.9 hPa | 3.05 mm | - | 0 W/m² | - |
| 1777457323 | 11.67° C | 97% | 1011 hPa | 0 mm | - | 0 W/m² | - |
| 1777457019 | 11.67° C | 97% | 1010.7 hPa | 0 mm | - | 0 W/m² | - |
| 1777456715 | 11.67° C | 97% | 1011.1 hPa | 0 mm | - | 0 W/m² | - |
| 1777456413 | 11.67° C | 97% | 1011 hPa | 0 mm | - | 0 W/m² | - |
| 1777456111 | 11.67° C | 97% | 1011.1 hPa | 0 mm | - | 0 W/m² | - |
* Rain latest hour (hover to see other rain measurements)
** Current wind speed in m/s (hover to see current wind gust speed)